• In India
  • List of Countries
  • For 7 days
  • Water Temperature
  • Satellite Maps
  • Weather Map
  • Weather Widgets
  • user-avatar
    Login

    Hourly Weather Ostrow

    Today, 23 October, Tuesday

    Time Temperature Precipitation Wind Pressure Humidity
    00:00 +7°C° 0.1 mm 4 mps 745 mmHg 82%
    01:00 +6°C° 0.1 mm 4 mps 745 mmHg 86%
    02:00 +6°C° 0 mm 4 mps 745 mmHg 88%
    03:00 +5°C° 0 mm 4 mps 744 mmHg 90%
    04:00 +4°C° 0 mm 4 mps 744 mmHg 92%
    05:00 +4°C° 0 mm 4 mps 743 mmHg 92%
    06:00 +4°C° 0 mm 4 mps 743 mmHg 91%
    07:00 +3°C° 0 mm 4 mps 743 mmHg 90%
    08:00 +3°C° 0 mm 5 mps 742 mmHg 83%
    09:00 +5°C° 0 mm 6 mps 741 mmHg 75%
    10:00 +6°C° 0 mm 7 mps 741 mmHg 67%
    11:00 +5°C° 0.6 mm 7 mps 739 mmHg 68%
    12:00 +5°C° 0.6 mm 8 mps 738 mmHg 69%
    13:00 +5°C° 0.6 mm 9 mps 737 mmHg 70%
    14:00 +5°C° 0.9 mm 9 mps 736 mmHg 72%
    15:00 +5°C° 0.9 mm 9 mps 735 mmHg 74%
    16:00 +5°C° 0.9 mm 9 mps 733 mmHg 76%
    17:00 +5°C° 0.6 mm 9 mps 732 mmHg 77%
    18:00 +6°C° 0.6 mm 10 mps 732 mmHg 78%
    19:00 +6°C° 0.6 mm 10 mps 731 mmHg 79%
    20:00 +6°C° 1 mm 9 mps 730 mmHg 81%
    21:00 +7°C° 1 mm 9 mps 729 mmHg 83%
    22:00 +7°C° 1 mm 8 mps 728 mmHg 85%
    23:00 +7°C° 1.8 mm 8 mps 727 mmHg 87%

    Tomorrow, 24 October, Wednesday

    Time Temperature Precipitation Wind Pressure Humidity
    00:00 +6°C° 1.8 mm 7 mps 727 mmHg 88%
    01:00 +7°C° 1.8 mm 6 mps 726 mmHg 89%
    02:00 +7°C° 1.3 mm 6 mps 725 mmHg 86%
    03:00 +6°C° 1.3 mm 7 mps 724 mmHg 84%
    04:00 +5°C° 1.3 mm 7 mps 723 mmHg 81%
    05:00 +5°C° 0.2 mm 8 mps 724 mmHg 77%
    06:00 +3°C° 0.2 mm 9 mps 724 mmHg 73%
    07:00 +3°C° 0.2 mm 10 mps 724 mmHg 69%
    08:00 +3°C° 0.1 mm 11 mps 725 mmHg 63%
    09:00 +3°C° 0.1 mm 11 mps 726 mmHg 56%
    10:00 +3°C° 0.1 mm 11 mps 727 mmHg 49%
    11:00 +3°C° 0 mm 11 mps 727 mmHg 49%
    12:00 +3°C° 0 mm 11 mps 728 mmHg 49%
    13:00 +4°C° 0 mm 11 mps 728 mmHg 48%
    14:00 +3°C° 0.1 mm 11 mps 728 mmHg 50%
    15:00 +3°C° 0.1 mm 11 mps 728 mmHg 52%
    16:00 +3°C° 0.1 mm 12 mps 729 mmHg 53%
    17:00 +3°C° 0 mm 12 mps 729 mmHg 54%
    18:00 +3°C° 0 mm 12 mps 730 mmHg 55%
    19:00 +2°C° 0 mm 12 mps 730 mmHg 56%
    20:00 +2°C° 0 mm 12 mps 731 mmHg 57%
    21:00 +2°C° 0 mm 11 mps 732 mmHg 58%
    22:00 +2°C° 0 mm 11 mps 732 mmHg 60%
    23:00 +2°C° 0 mm 10 mps 733 mmHg 61%

    Day after tomorrow, 25 October, Thursday

    Time Temperature Precipitation Wind Pressure Humidity
    00:00 +2°C° 0 mm 9 mps 734 mmHg 62%
    01:00 +2°C° 0 mm 9 mps 734 mmHg 64%
    02:00 +1°C° 0 mm 8 mps 734 mmHg 66%
    03:00 +1°C° 0 mm 8 mps 735 mmHg 67%
    04:00 0°C° 0 mm 7 mps 735 mmHg 69%
    05:00 0°C° 0 mm 7 mps 735 mmHg 71%
    06:00 +1°C° 0 mm 6 mps 735 mmHg 72%
    07:00 +1°C° 0 mm 6 mps 735 mmHg 74%
    08:00 +2°C° 0.1 mm 6 mps 734 mmHg 73%
    09:00 +2°C° 0.1 mm 6 mps 734 mmHg 73%
    10:00 +3°C° 0.1 mm 6 mps 733 mmHg 73%
    11:00 +4°C° 1 mm 7 mps 732 mmHg 77%
    12:00 +4°C° 1 mm 7 mps 731 mmHg 81%
    13:00 +5°C° 1 mm 7 mps 730 mmHg 85%
    14:00 +6°C° 0.5 mm 8 mps 730 mmHg 82%
    15:00 +6°C° 0.5 mm 9 mps 730 mmHg 78%
    16:00 +7°C° 0.5 mm 9 mps 729 mmHg 74%
    17:00 +6°C° 0.2 mm 9 mps 730 mmHg 75%
    18:00 +6°C° 0.2 mm 8 mps 731 mmHg 76%
    19:00 +5°C° 0.2 mm 8 mps 731 mmHg 77%
    20:00 +5°C° 0 mm 8 mps 732 mmHg 79%
    21:00 +4°C° 0 mm 7 mps 733 mmHg 81%
    22:00 +4°C° 0 mm 7 mps 734 mmHg 83%
    23:00 +4°C° 0 mm 6 mps 734 mmHg 85%

    26 October, Friday

    Time Temperature Precipitation Wind Pressure Humidity
    00:00 +4°C° 0 mm 6 mps 734 mmHg 87%
    01:00 +3°C° 0 mm 6 mps 735 mmHg 88%
    02:00 +3°C° 0 mm 5 mps 735 mmHg 89%
    03:00 +3°C° 0 mm 5 mps 735 mmHg 89%
    04:00 +3°C° 0 mm 5 mps 735 mmHg 90%
    05:00 +3°C° 0 mm 5 mps 736 mmHg 90%
    06:00 +4°C° 0 mm 4 mps 736 mmHg 90%
    07:00 +4°C° 0 mm 4 mps 736 mmHg 90%
    08:00 +5°C° 0 mm 4 mps 736 mmHg 85%
    09:00 +6°C° 0 mm 4 mps 737 mmHg 80%
    10:00 +7°C° 0 mm 5 mps 737 mmHg 74%
    11:00 +7°C° 0 mm 5 mps 737 mmHg 71%
    12:00 +8°C° 0 mm 5 mps 736 mmHg 68%
    13:00 +8°C° 0 mm 5 mps 736 mmHg 65%
    14:00 +8°C° 0 mm 4 mps 736 mmHg 68%
    15:00 +9°C° 0 mm 3 mps 736 mmHg 72%
    16:00 +8°C° 0 mm 3 mps 736 mmHg 76%
    17:00 +8°C° 0 mm 3 mps 735 mmHg 79%
    18:00 +8°C° 0 mm 3 mps 735 mmHg 82%
    19:00 +7°C° 0 mm 3 mps 735 mmHg 85%
    20:00 +7°C° 0 mm 3 mps 735 mmHg 85%
    21:00 +7°C° 0 mm 3 mps 735 mmHg 85%
    22:00 +6°C° 0 mm 4 mps 735 mmHg 85%
    23:00 +6°C° 0 mm 4 mps 734 mmHg 85%

    27 October, Saturday

    Time Temperature Precipitation Wind Pressure Humidity
    00:00 +6°C° 0 mm 4 mps 734 mmHg 85%
    01:00 +7°C° 0 mm 4 mps 733 mmHg 85%
    02:00 +7°C° 0 mm 4 mps 733 mmHg 85%
    03:00 +7°C° 0 mm 4 mps 732 mmHg 84%
    04:00 +7°C° 0 mm 5 mps 732 mmHg 84%
    05:00 +7°C° 0 mm 4 mps 732 mmHg 85%
    06:00 +7°C° 0 mm 4 mps 732 mmHg 86%
    07:00 +7°C° 0 mm 4 mps 731 mmHg 87%
    08:00 +8°C° 0 mm 4 mps 731 mmHg 83%
    09:00 +11°C° 0 mm 4 mps 732 mmHg 79%
    10:00 +12°C° 0 mm 4 mps 732 mmHg 74%
    11:00 +12°C° 0 mm 3 mps 732 mmHg 72%
    12:00 +14°C° 0 mm 2 mps 731 mmHg 71%
    13:00 +14°C° 0 mm 2 mps 731 mmHg 69%
    14:00 +13°C° 1 mm 2 mps 731 mmHg 75%
    15:00 +12°C° 1 mm 2 mps 731 mmHg 81%
    16:00 +10°C° 1 mm 2 mps 731 mmHg 87%
    17:00 +9°C° 0.8 mm 3 mps 731 mmHg 88%
    18:00 +9°C° 0.8 mm 3 mps 731 mmHg 88%
    19:00 +8°C° 0.8 mm 3 mps 731 mmHg 88%
    20:00 +8°C° 0.1 mm 3 mps 731 mmHg 87%
    21:00 +8°C° 0.1 mm 3 mps 731 mmHg 85%
    22:00 +7°C° 0.1 mm 2 mps 731 mmHg 84%
    23:00 +7°C° 0.2 mm 3 mps 731 mmHg 83%

    28 October, Sunday

    Time Temperature Precipitation Wind Pressure Humidity
    00:00 +7°C° 0.2 mm 3 mps 731 mmHg 82%
    01:00 +7°C° 0.2 mm 3 mps 731 mmHg 81%
    02:00 +5°C° 0.2 mm 3 mps 730 mmHg 81%
    03:00 +5°C° 0.2 mm 4 mps 730 mmHg 81%
    04:00 +5°C° 0.2 mm 4 mps 729 mmHg 81%
    05:00 +5°C° 1.1 mm 4 mps 729 mmHg 83%
    06:00 +4°C° 1.1 mm 4 mps 729 mmHg 85%
    07:00 +4°C° 1.1 mm 4 mps 729 mmHg 86%
    08:00 +4°C° 0.2 mm 4 mps 729 mmHg 86%
    09:00 +4°C° 0.2 mm 3 mps 729 mmHg 85%
    10:00 +4°C° 0.2 mm 3 mps 729 mmHg 84%
    11:00 +5°C° 0 mm 3 mps 730 mmHg 83%
    12:00 +5°C° 0 mm 3 mps 731 mmHg 81%
    13:00 +5°C° 0 mm 4 mps 731 mmHg 80%
    14:00 +5°C° 0 mm 4 mps 732 mmHg 80%
    15:00 +5°C° 0 mm 3 mps 733 mmHg 80%
    16:00 +4°C° 0 mm 3 mps 734 mmHg 81%
    17:00 +4°C° 0 mm 3 mps 735 mmHg 83%
    18:00 +3°C° 0 mm 3 mps 736 mmHg 85%
    19:00 +3°C° 0 mm 2 mps 737 mmHg 87%
    20:00 +3°C° 0 mm 2 mps 737 mmHg 87%
    21:00 +3°C° 0 mm 2 mps 738 mmHg 88%
    22:00 +3°C° 0 mm 2 mps 739 mmHg 88%
    23:00 +2°C° 0 mm 2 mps 739 mmHg 88%

    29 October, Monday

    Time Temperature Precipitation Wind Pressure Humidity
    00:00 +2°C° 0 mm 2 mps 739 mmHg 89%
    01:00 +2°C° 0 mm 2 mps 739 mmHg 89%
    02:00 +2°C° 0 mm 2 mps 740 mmHg 89%
    03:00 +2°C° 0 mm 2 mps 740 mmHg 89%
    04:00 +2°C° 0 mm 2 mps 740 mmHg 90%
    05:00 +2°C° 0 mm 2 mps 740 mmHg 89%
    06:00 +2°C° 0 mm 2 mps 741 mmHg 89%
    07:00 +3°C° 0 mm 1 mps 741 mmHg 89%
    08:00 +4°C° 0 mm 1 mps 741 mmHg 83%
    09:00 +5°C° 0 mm 1 mps 741 mmHg 78%
    10:00 +6°C° 0 mm 1 mps 741 mmHg 73%
    11:00 +7°C° 0 mm 1 mps 741 mmHg 71%
    12:00 +6°C° 0 mm 2 mps 741 mmHg 69%
    13:00 +7°C° 0 mm 2 mps 741 mmHg 67%
    14:00 +7°C° 0 mm 2 mps 740 mmHg 70%
    15:00 +5°C° 0 mm 3 mps 740 mmHg 72%
    16:00 +5°C° 0 mm 3 mps 740 mmHg 75%
    17:00 +5°C° 0.1 mm 4 mps 739 mmHg 77%
    18:00 +4°C° 0.1 mm 4 mps 739 mmHg 79%
    19:00 +4°C° 0.1 mm 4 mps 739 mmHg 81%
    20:00 +3°C° 0.3 mm 5 mps 738 mmHg 83%
    21:00 +3°C° 0.3 mm 5 mps 738 mmHg 84%
    22:00 +3°C° 0.3 mm 5 mps 737 mmHg 86%
    23:00 +3°C° 0.4 mm 5 mps 737 mmHg 87%
    Show more